Lake Martin Weather Center

Moon Phase Calendar



Lake Martin Water Level
Online Cameras

 


      

Current Conditions in Dadeville
1/28/2022 4:57:24 PM

45°F
Feels Like 38
Clouds
Humidity
33%
Pressure
30.06"
Wind
15 mph (NW)
Dew Point
19°F
UV Index
0/10 (Low)
Visibility
6 mi

Hourly Forecast

Date & Time Fri, Jan 28
4:00 PM
Fri, Jan 28
5:00 PM
Fri, Jan 28
6:00 PM
Fri, Jan 28
7:00 PM
Fri, Jan 28
8:00 PM
Fri, Jan 28
9:00 PM
Fri, Jan 28
10:00 PM
Fri, Jan 28
11:00 PM
Sat, Jan 29
12:00 AM
Sat, Jan 29
1:00 AM
Sat, Jan 29
2:00 AM
Sat, Jan 29
3:00 AM
Sat, Jan 29
4:00 AM
Sat, Jan 29
5:00 AM
Sat, Jan 29
6:00 AM
Sat, Jan 29
7:00 AM
Sat, Jan 29
8:00 AM
Sat, Jan 29
9:00 AM
Sat, Jan 29
10:00 AM
Sat, Jan 29
11:00 AM
Sat, Jan 29
12:00 PM
Sat, Jan 29
1:00 PM
Sat, Jan 29
2:00 PM
Sat, Jan 29
3:00 PM
Sat, Jan 29
4:00 PM
Sat, Jan 29
5:00 PM
Sat, Jan 29
6:00 PM
Sat, Jan 29
7:00 PM
Sat, Jan 29
8:00 PM
Sat, Jan 29
9:00 PM
Sat, Jan 29
10:00 PM
Sat, Jan 29
11:00 PM
Sun, Jan 30
12:00 AM
Sun, Jan 30
1:00 AM
Sun, Jan 30
2:00 AM
Sun, Jan 30
3:00 AM
Sun, Jan 30
4:00 AM
Sun, Jan 30
5:00 AM
Sun, Jan 30
6:00 AM
Sun, Jan 30
7:00 AM
Sun, Jan 30
8:00 AM
Sun, Jan 30
9:00 AM
Sun, Jan 30
10:00 AM
Sun, Jan 30
11:00 AM
Sun, Jan 30
12:00 PM
Sun, Jan 30
1:00 PM
Sun, Jan 30
2:00 PM
Sun, Jan 30
3:00 PM
Condition
Clouds

Clouds

Clouds

Clouds

Clouds

Clouds

Clouds

Clouds

Clouds

Clear

Clear

Clear

Clear

Clear

Clear

Clear

Clear

Clear

Clear

Clear

Clear

Clear

Clear

Clear

Clear

Clear

Clear

Clear

Clear

Clear

Clear

Clear

Clear

Clear

Clear

Clear

Clear

Clear

Clear

Clear

Clear

Clear

Clear

Clear

Clear

Clear

Clear

Clear
Temperature 45°F45°F44°F42°F40°F37°F33°F31°F29°F27°F26°F25°F24°F24°F24°F24°F27°F30°F34°F37°F39°F41°F42°F42°F41°F37°F33°F31°F31°F30°F30°F30°F29°F29°F29°F29°F29°F29°F29°F29°F35°F41°F46°F50°F53°F55°F56°F56°F
Feels Like 39°F39°F38°F36°F33°F29°F24°F21°F18°F16°F14°F14°F13°F13°F14°F15°F17°F21°F26°F30°F33°F35°F36°F35°F35°F31°F28°F28°F27°F27°F30°F30°F26°F25°F24°F24°F24°F23°F23°F23°F28°F34°F40°F45°F50°F52°F53°F53°F
Cloudiness 49%40%44%38%39%36%47%51%53%3%3%3%4%5%5%8%7%6%5%4%3%0%0%0%0%0%0%0%0%0%0%0%0%0%0%0%0%0%0%0%0%0%0%0%0%0%0%0%
Visibility 6 mi6 mi6 mi6 mi6 mi6 mi6 mi6 mi6 mi6 mi6 mi6 mi6 mi6 mi6 mi6 mi6 mi6 mi6 mi6 mi6 mi6 mi6 mi6 mi6 mi6 mi6 mi6 mi6 mi6 mi6 mi6 mi6 mi6 mi6 mi6 mi6 mi6 mi6 mi6 mi6 mi6 mi6 mi6 mi6 mi6 mi6 mi6 mi
Precipitation 0%0%0%0%0%0%0%0%0%0%0%0%0%0%0%0%0%0%0%0%0%0%0%0%0%0%0%0%0%0%0%0%0%0%0%0%0%0%0%0%0%0%0%0%0%0%0%0%
Humidity 37%33%38%43%51%61%70%72%63%60%60%63%65%69%71%71%58%42%32%26%23%21%21%23%27%33%41%44%46%47%48%49%51%52%53%54%54%55%55%54%45%42%43%42%41%41%42%47%
Dew Point 22°F19°F21°F23°F24°F26°F24°F23°F17°F15°F13°F13°F14°F15°F15°F15°F13°F10°F7°F5°F4°F4°F5°F6°F8°F10°F11°F12°F12°F12°F12°F13°F13°F13°F14°F14°F14°F14°F14°F14°F15°F19°F24°F27°F30°F31°F33°F36°F
Pressure 30.06"30.06"30.09"30.09"30.12"30.15"30.21"30.21"30.24"30.24"30.24"30.24"30.27"30.27"30.3"30.3"30.33"30.33"30.33"30.33"30.27"30.24"30.21"30.21"30.24"30.24"30.27"30.27"30.27"30.27"30.27"30.24"30.24"30.24"30.24"30.24"30.21"30.21"30.21"30.24"30.21"30.21"30.18"30.15"30.12"30.09"30.06"30.06"
Wind Speed 12.7 mph12.7 mph11.6 mph11.3 mph11.4 mph12.5 mph12.9 mph13.2 mph13.3 mph12.8 mph12.4 mph11.8 mph11.4 mph11 mph10 mph8.9 mph10.4 mph9.9 mph9.7 mph9.8 mph10.1 mph10.5 mph10.8 mph10.8 mph9.4 mph7.1 mph4.7 mph3.8 mph3.4 mph3 mph2.4 mph2.9 mph3.4 mph3.8 mph4.3 mph4.5 mph4.5 mph4.7 mph5.3 mph5.9 mph8.2 mph10.5 mph12 mph13.3 mph13.6 mph13.4 mph13.3 mph10.8 mph
Wind
Direction
321°
NW
326°
NW
322°
NW
319°
NW
314°
NW
317°
NW
324°
NW
324°
NW
321°
NW
326°
NW
326°
NW
322°
NW
324°
NW
327°
NNW
330°
NNW
331°
NNW
336°
NNW
338°
NNW
335°
NNW
329°
NNW
325°
NW
322°
NW
320°
NW
321°
NW
319°
NW
316°
NW
313°
NW
310°
NW
302°
WNW
301°
WNW
283°
WNW
248°
WSW
235°
SW
224°
SW
216°
SW
207°
SSW
201°
SSW
201°
SSW
201°
SSW
201°
SSW
210°
SSW
220°
SW
228°
SW
235°
SW
243°
WSW
249°
WSW
254°
WSW
254°
WSW

Daily Forecast

Date High Low Precip. Humidity
Today
Jan 28

Clouds
49 °F
31 °F
0%
42%
Saturday
Jan 29

Clear
42 °F
24 °F
0%
26%
Sunday
Jan 30

Clear
56 °F
29 °F
0%
41%
Monday
Jan 31

Clear
59 °F
36 °F
0%
51%
Tuesday
Feb 1

Clouds
61 °F
42 °F
0%
46%
Wednesday
Feb 2

Rain
60 °F
52 °F
100%
97%
Thursday
Feb 3

Rain
70 °F
53 °F
100%
83%
Friday
Feb 4

Clouds
41 °F
30 °F
53%
45%
Saturday
Feb 5

Clear
44 °F
24 °F
0%
19%
Sunday
Feb 6

Clear
49 °F
27 °F
0%
31%
Monday
Feb 7

Clouds
51 °F
29 °F
0%
35%
Tuesday
Feb 8

Clear
54 °F
31 °F
0%
35%
Wednesday
Feb 9

Clear
45 °F
28 °F
0%
41%
Thursday
Feb 10

Clouds
50 °F
27 °F
0%
30%
Friday
Feb 11

Clouds
51 °F
39 °F
0%
35%
Saturday
Feb 12

Clear
58 °F
31 °F
0%
37%

Temperature 8-14 Day Outlook



Precipitation 8-14 Day Outlook






About Us
Contact Us
Site Map
Search Site
Advertise With Us
   
www.LakeMartin.com
THE LAKE MARTIN WEBSITE

Copyright 2022, Lakes Online
Privacy    |    Legal